time_stamp(utc),avg(mph),gust(mph),direction(deg),12m_air_temp(f),sonic_u(cm/s),sonic_v(cm/s),sonic_w(cm/s),pressure,2m_air_temp(f),pyranometer(W/m^2)
"2021-10-23 00:01:44+00",11.7,12.7,,,-366,393,23,1012.98,62.3,0
"2021-10-23 00:06:44+00",12.5,14.5,,,-428,383,37,1013.01,62.2,0
"2021-10-23 00:11:44+00",12.2,14.2,,,-380,386,32,1012.98,62.1,0
"2021-10-23 00:16:44+00",11.4,13.4,,,-378,335,28,1013.11,62.1,0
"2021-10-23 00:21:44+00",11.2,12.2,,,-395,317,38,1013.02,62,0
"2021-10-23 00:26:44+00",11.0,12.0,,,-387,308,32,1013.05,62,0
"2021-10-23 00:31:44+00",10.8,11.8,,,-389,287,28,1013.11,61.9,0
"2021-10-23 00:36:44+00",9.4,10.4,,,-329,255,38,1012.98,61.8,0
"2021-10-23 00:41:44+00",9.9,11.9,,,-337,296,26,1013.02,61.6,0
"2021-10-23 00:46:44+00",8.9,10.9,,,-293,252,28,1013.02,61.4,0
"2021-10-23 00:51:44+00",8.4,9.4,,,-291,247,33,1013.12,61.3,0
"2021-10-23 00:56:44+00",7.8,9.8,,,-246,238,34,1013.06,61.1,0
"2021-10-23 01:01:44+00",10.0,11.0,,,-305,314,30,1012.99,60.9,0
"2021-10-23 01:06:44+00",10.1,12.1,,,-335,305,29,1013.02,60.8,0
"2021-10-23 01:11:44+00",9.3,10.3,,,-287,277,36,1012.96,60.7,0
"2021-10-23 01:16:44+00",11.4,12.4,,,-370,343,27,1013.01,60.6,0
"2021-10-23 01:21:44+00",9.0,11.0,,,-286,300,36,1013.12,60.5,0
"2021-10-23 01:26:44+00",8.8,9.8,,,-283,270,25,1013.15,60.4,0
"2021-10-23 01:31:44+00",8.3,10.3,,,-250,270,11,1013.23,60.1,0
"2021-10-23 01:36:44+00",7.6,8.6,,60.6,-219,259,11,1013.17,59.9,0
"2021-10-23 01:41:44+00",8.1,9.1,,,-245,268,19,1013.19,59.7,0
"2021-10-23 01:46:44+00",7.3,8.3,,,-209,233,9,1013.27,59.4,0
"2021-10-23 01:51:44+00",7.0,8.0,,,-225,212,17,1013.37,59.4,0
"2021-10-23 01:56:44+00",5.8,6.8,,60.3,-178,175,15,1013.42,59.2,0
"2021-10-23 02:01:44+00",6.7,7.7,,,-228,187,12,1013.42,59.2,0
"2021-10-23 02:06:44+00",7.3,8.3,,,-242,208,14,1013.34,59.3,0
"2021-10-23 02:11:44+00",7.8,9.8,,,-274,233,24,1013.29,59.3,0
"2021-10-23 02:16:44+00",6.6,7.6,,,-228,204,31,1013.34,59.3,0
"2021-10-23 02:21:44+00",7.4,8.4,,,-246,216,19,1013.41,59.2,0
"2021-10-23 02:26:44+00",8.5,9.5,,,-292,243,21,1013.45,59.2,0
"2021-10-23 02:31:44+00",10.0,11.0,,,-322,298,28,1013.41,59.3,0
"2021-10-23 02:36:44+00",9.0,11.0,,,-295,252,35,1013.4,59.3,0
"2021-10-23 02:41:44+00",9.4,10.4,,,-313,277,18,1013.33,59.2,0
"2021-10-23 02:46:44+00",11.0,12.0,,,-357,338,25,1013.25,59.2,0
"2021-10-23 02:51:44+00",9.9,11.9,,,-320,290,21,1013.21,59.1,0
"2021-10-23 02:56:44+00",9.2,11.2,,,-321,277,27,1013.21,59.1,0
"2021-10-23 03:01:44+00",10.8,11.8,,,-348,335,31,1013.18,59,0
"2021-10-23 03:06:44+00",9.4,11.4,,,-331,260,37,1013.23,59,0
"2021-10-23 03:11:44+00",11.2,13.2,,59.4,-360,345,21,1013.12,58.9,0
"2021-10-23 03:16:44+00",11.5,13.5,,,-386,339,17,1012.99,58.8,0
"2021-10-23 03:21:44+00",11.3,12.3,,59.1,-364,352,26,1013.04,58.7,0
"2021-10-23 03:26:44+00",11.4,12.4,,,-343,359,33,1012.94,58.6,0
"2021-10-23 03:31:44+00",10.7,12.7,,,-355,334,34,1012.89,58.5,0
"2021-10-23 03:36:44+00",11.2,12.2,,,-380,333,16,1012.88,58.4,0
"2021-10-23 03:41:44+00",10.0,11.0,,58.5,-326,307,22,1012.79,58.3,0
"2021-10-23 03:46:44+00",11.2,12.2,,,-404,333,40,1012.86,58.1,0
"2021-10-23 03:51:44+00",11.1,12.1,,,-355,354,24,1012.92,58,0
"2021-10-23 03:56:44+00",11.0,13.0,,,-299,372,15,1012.86,57.8,0
"2021-10-23 04:01:44+00",8.5,10.5,,,-208,297,21,1012.83,57.4,0
"2021-10-23 04:06:44+00",8.6,9.6,,,-252,292,11,1012.91,57.1,0
"2021-10-23 04:11:44+00",9.2,10.2,,,-249,318,8,1012.85,56.8,0
"2021-10-23 04:16:44+00",9.0,10.0,,57.3,-245,315,12,1012.88,56.7,0
"2021-10-23 04:21:44+00",9.5,10.5,,,-248,334,17,1012.93,56.5,0
"2021-10-23 04:26:44+00",8.7,9.7,,,-238,304,16,1012.88,56.4,0
"2021-10-23 04:31:44+00",8.6,9.6,,,-214,314,18,1012.9,56.3,0
"2021-10-23 04:36:44+00",8.2,9.2,,,-167,319,13,1012.96,56.2,0
"2021-10-23 04:41:44+00",7.6,9.6,,57,-126,310,-1,1013.01,56,0
"2021-10-23 04:46:44+00",7.5,8.5,,,-118,301,6,1012.98,55.9,0
"2021-10-23 04:51:44+00",5.9,6.9,,,-106,242,10,1012.94,55.7,0
"2021-10-23 04:56:44+00",7.1,8.1,,,-134,279,6,1013.06,55.5,0
"2021-10-23 05:01:44+00",6.3,8.3,,,-155,224,15,1013.01,55.5,0
"2021-10-23 05:06:44+00",6.5,7.5,,,-181,231,5,1013.07,55.6,0
"2021-10-23 05:11:44+00",7.2,8.2,,56.4,-203,242,7,1012.92,55.8,0
"2021-10-23 05:16:44+00",8.1,9.1,,,-215,280,12,1012.89,55.9,0
"2021-10-23 05:21:44+00",8.0,9.0,,,-162,311,-5,1012.8,55.9,0
"2021-10-23 05:26:44+00",7.3,9.3,,,-145,291,10,1012.74,55.9,0
"2021-10-23 05:31:44+00",7.5,9.5,,,-139,302,5,1012.68,55.8,0
"2021-10-23 05:36:44+00",9.4,9.4,,,-153,392,6,1012.62,55.8,0
"2021-10-23 05:41:44+00",6.7,7.7,,,-112,280,13,1012.56,55.6,0
"2021-10-23 05:46:44+00",7.4,8.4,,56,-137,304,9,1012.59,55.3,0
"2021-10-23 05:51:44+00",7.0,8.0,,,-127,289,8,1012.63,55.1,0
"2021-10-23 05:56:44+00",7.0,8.0,,,-113,277,10,1012.6,54.8,0
"2021-10-23 06:01:44+00",6.8,7.8,,,-103,279,8,1012.52,54.7,0
"2021-10-23 06:06:44+00",6.7,7.7,,,-109,279,12,1012.48,54.5,0
"2021-10-23 06:11:44+00",6.7,8.7,,,-98,282,9,1012.42,54.2,0
"2021-10-23 06:16:44+00",8.1,9.1,,,-105,350,0,1012.29,54,0
"2021-10-23 06:21:44+00",8.1,9.1,,,-91,342,4,1012.38,53.9,0
"2021-10-23 06:26:44+00",8.3,9.3,,,-107,348,4,1012.42,53.7,0
"2021-10-23 06:31:44+00",7.7,8.7,,,-88,330,7,1012.39,53.6,0
"2021-10-23 06:36:44+00",7.8,9.8,,,-96,329,1,1012.42,53.5,0
"2021-10-23 06:41:44+00",8.2,9.2,,,-78,351,7,1012.4,53.5,0
"2021-10-23 06:46:44+00",8.2,10.2,,54.7,-9,354,5,1012.45,53.4,0
"2021-10-23 06:51:44+00",9.5,11.5,,,-30,407,6,1012.5,53.3,0
"2021-10-23 06:56:44+00",9.5,10.5,,54.6,-28,412,7,1012.55,53.2,0
"2021-10-23 07:01:44+00",9.6,10.6,,,-25,428,3,1012.42,53.2,0
"2021-10-23 07:06:44+00",9.5,11.5,,,-18,410,8,1012.57,53.1,0
"2021-10-23 07:11:44+00",7.8,8.8,,,-12,341,8,1012.66,53,0
"2021-10-23 07:16:44+00",9.7,10.7,,54.6,-29,431,3,1012.81,52.9,0
"2021-10-23 07:21:44+00",9.5,11.5,,,-36,409,9,1012.95,52.9,0
"2021-10-23 07:26:44+00",9.5,11.5,,,-11,420,8,1012.91,52.9,0
"2021-10-23 07:31:44+00",8.7,9.7,,54.5,-25,381,11,1012.9,52.8,0
"2021-10-23 07:36:44+00",9.2,11.2,,,1,405,4,1012.81,52.8,0
"2021-10-23 07:41:44+00",8.0,9.0,,,-6,347,1,1012.88,52.7,0
"2021-10-23 07:46:44+00",8.0,9.0,,,-11,360,3,1012.87,52.6,0
"2021-10-23 07:51:44+00",8.4,8.4,,,-2,365,1,1012.93,52.5,0
"2021-10-23 07:56:44+00",8.3,9.3,,,15,361,-1,1012.87,52.4,0
"2021-10-23 08:01:44+00",8.2,9.2,,,2,359,-1,1012.8,52.2,0
"2021-10-23 08:06:44+00",8.0,9.0,,,7,349,4,1012.76,52.2,0
"2021-10-23 08:11:44+00",7.4,8.4,,,66,303,-1,1012.84,52,0
"2021-10-23 08:16:44+00",6.4,7.4,,,37,268,1,1012.89,52,0
"2021-10-23 08:21:44+00",7.7,8.7,,54.1,6,334,0,1012.79,51.9,0
"2021-10-23 08:26:44+00",8.2,9.2,,,-10,366,0,1012.76,51.8,0
"2021-10-23 08:31:44+00",9.1,11.1,,,-19,398,6,1012.85,51.7,0
"2021-10-23 08:36:44+00",7.9,8.9,,53.7,10,348,-4,1012.8,51.7,0
"2021-10-23 08:41:44+00",8.2,9.2,,,-36,355,6,1012.79,51.6,0
"2021-10-23 08:46:44+00",8.4,9.4,,,-109,344,4,1012.79,51.6,0
"2021-10-23 08:51:44+00",8.3,9.3,,,-114,351,10,1012.84,51.6,0
"2021-10-23 08:56:44+00",8.5,9.5,,52.7,-112,350,2,1012.82,51.5,0
"2021-10-23 09:01:44+00",8.0,9.0,,,-82,339,1,1012.8,51.4,0
"2021-10-23 09:06:44+00",7.7,9.7,,,-85,338,3,1012.83,51.3,0
"2021-10-23 09:11:44+00",7.9,8.9,,,-90,332,9,1012.84,51.2,0
"2021-10-23 09:16:44+00",7.3,9.3,,52.2,-95,297,7,1012.9,51.1,0
"2021-10-23 09:21:44+00",6.3,7.3,,,-54,271,5,1013,51,0
"2021-10-23 09:26:44+00",5.9,6.9,,,-1,254,-3,1013.01,50.8,0
"2021-10-23 09:31:44+00",7.2,8.2,,,6,307,0,1013.05,50.7,0
"2021-10-23 09:36:44+00",7.2,8.2,,52.2,-16,312,5,1013.07,50.7,0
"2021-10-23 09:41:44+00",8.3,9.3,,,45,354,2,1013.14,50.7,0
"2021-10-23 09:46:44+00",8.4,9.4,,,48,354,2,1013.07,51,0
"2021-10-23 09:51:44+00",9.4,10.4,,,35,411,4,1013.14,51.4,0
"2021-10-23 09:56:44+00",9.7,10.7,,53.4,87,402,-5,1013.17,51.7,0
"2021-10-23 10:01:44+00",8.2,10.2,,,74,335,-5,1013.22,52,0
"2021-10-23 10:06:44+00",6.7,7.7,,53.4,60,271,3,1013.25,52.1,0
"2021-10-23 10:11:44+00",6.7,7.7,,,87,271,-5,1013.32,52.2,0
"2021-10-23 10:16:44+00",7.4,9.4,,,76,311,5,1013.33,52.3,0
"2021-10-23 10:21:44+00",6.4,8.4,,,60,261,-2,1013.39,52.3,0
"2021-10-23 10:26:44+00",6.7,7.7,,,74,270,-1,1013.46,52.4,0
"2021-10-23 10:31:44+00",7.2,8.2,,,50,301,-9,1013.51,52.6,0
"2021-10-23 10:36:44+00",6.4,7.4,,53.7,81,247,-1,1013.58,52.7,0
"2021-10-23 10:41:44+00",7.3,8.3,,,112,295,-10,1013.56,52.8,0
"2021-10-23 10:46:44+00",7.1,8.1,,,93,289,-4,1013.52,52.8,0
"2021-10-23 10:51:44+00",7.6,8.6,,,130,306,-2,1013.47,52.8,0
"2021-10-23 10:56:44+00",7.4,8.4,,,138,287,-1,1013.4,52.7,0
"2021-10-23 11:01:44+00",6.5,7.5,,,83,255,-2,1013.38,52.6,0
"2021-10-23 11:06:44+00",7.1,8.1,,53.4,106,284,-5,1013.36,52.5,0
"2021-10-23 11:11:44+00",6.9,7.9,,,50,287,-1,1013.41,52.5,0
"2021-10-23 11:16:44+00",6.3,7.3,,,98,249,-4,1013.3,52.5,0
"2021-10-23 11:21:44+00",6.3,7.3,,53.5,28,271,-1,1013.4,52.5,0
"2021-10-23 11:26:44+00",6.5,7.5,,,12,282,6,1013.4,52.6,0
"2021-10-23 11:31:44+00",6.6,7.6,,53.8,47,267,-4,1013.36,52.7,0
"2021-10-23 11:36:44+00",6.7,7.7,,,64,264,-7,1013.36,53,0
"2021-10-23 11:41:44+00",5.9,6.9,,,-22,262,9,1013.37,53.3,0
"2021-10-23 11:46:44+00",7.2,8.2,,,-73,319,-1,1013.52,53.4,0
"2021-10-23 11:51:44+00",8.6,9.6,,,-105,368,5,1013.52,53.7,0
"2021-10-23 11:56:44+00",7.6,8.6,,,-176,270,16,1013.65,53.8,0
"2021-10-23 12:01:44+00",7.7,8.7,,,-148,306,9,1013.78,53.9,0
"2021-10-23 12:06:44+00",6.7,7.7,,,-128,265,14,1013.71,54,0
"2021-10-23 12:11:44+00",8.6,9.6,,,-156,337,7,1013.8,53.7,0
"2021-10-23 12:16:44+00",8.6,9.6,,,-152,341,-1,1013.77,53.6,0.3
"2021-10-23 12:21:44+00",8.9,9.9,,,-156,357,17,1013.76,53.6,0
"2021-10-23 12:26:44+00",5.8,6.8,,,-97,227,34,1013.82,53.6,0
"2021-10-23 12:31:44+00",5.6,6.6,,,-72,235,16,1013.9,53.7,0.3
"2021-10-23 12:36:44+00",6.1,7.1,,,-13,260,18,1013.89,54,1.9
"2021-10-23 12:41:44+00",7.6,8.6,,,8,335,1,1013.83,54.4,2.5
"2021-10-23 12:46:44+00",7.1,9.1,,54.4,4,315,3,1013.91,54.7,0.4
"2021-10-23 12:51:44+00",7.4,8.4,,,-15,327,6,1013.87,54.9,1.7
"2021-10-23 12:56:44+00",6.2,7.2,,,41,256,-5,1013.87,55.1,3
"2021-10-23 13:01:44+00",6.3,8.3,,,24,271,5,1013.96,55.4,2.8
"2021-10-23 13:06:44+00",9.0,11.0,,,56,381,-1,1014.15,55.6,1.4
"2021-10-23 13:11:44+00",8.5,9.5,,,62,354,-12,1014.19,55.9,78.5
"2021-10-23 13:16:44+00",8.0,9.0,,,93,327,-8,1014.16,56.6,133.9
"2021-10-23 13:21:44+00",8.0,10.0,,,-7,357,27,1014.2,57.7,108.3
"2021-10-23 13:26:44+00",8.3,10.3,,,-39,366,25,1014.42,58.8,155.6
"2021-10-23 13:31:44+00",9.5,11.5,,,32,420,-3,1014.47,59.6,157.3
"2021-10-23 13:36:44+00",10.4,12.4,,,4,460,-16,1014.54,60,169.4
"2021-10-23 13:41:44+00",9.3,10.3,,,53,393,-21,1014.59,60.7,133.5
"2021-10-23 13:46:44+00",8.3,10.3,,,38,358,0,1014.67,61,119.2
"2021-10-23 13:51:44+00",9.4,10.4,,,104,382,-27,1014.64,61,105.2
"2021-10-23 13:56:44+00",9.5,11.5,,,-20,421,-2,1014.77,60.9,60.1
"2021-10-23 14:01:44+00",10.5,12.5,,,47,457,-8,1014.82,60.5,77.3
"2021-10-23 14:06:44+00",10.4,12.4,,58.4,78,446,-1,1014.73,60.3,81.3
"2021-10-23 14:11:44+00",11.2,12.2,,,69,473,-25,1014.63,60.4,79.6
"2021-10-23 14:16:44+00",11.9,12.9,,,12,528,12,1014.55,60.5,66.6
"2021-10-23 14:21:44+00",8.6,11.6,,,109,333,14,1014.61,60.7,162.9
"2021-10-23 14:26:44+00",8.3,11.3,,,60,353,19,1014.57,60.8,86.3
"2021-10-23 14:31:44+00",10.1,12.1,,,205,373,1,1014.62,61,116.7
"2021-10-23 14:36:44+00",10.0,12.0,,,171,392,-22,1014.63,61.3,104.4
"2021-10-23 14:41:44+00",9.0,13.0,,59.8,156,365,8,1014.57,62,264.3
"2021-10-23 14:46:44+00",11.6,13.6,,,221,439,6,1014.65,62.7,277
"2021-10-23 14:51:44+00",10.8,13.8,,,273,353,-7,1014.64,63.3,148.9
"2021-10-23 14:56:44+00",11.2,14.2,,,269,414,16,1014.83,63.5,169.6
"2021-10-23 15:01:44+00",11.9,12.9,,60,285,405,-4,1014.8,63.6,140.4
"2021-10-23 15:06:44+00",11.0,13.0,,,291,365,-12,1014.9,63,132.1
"2021-10-23 15:11:44+00",11.3,13.3,,,246,396,5,1014.96,63,168.4
"2021-10-23 15:16:44+00",10.7,14.7,,,234,406,10,1014.93,63.2,154.2
"2021-10-23 15:21:44+00",14.2,15.2,,,391,453,2,1014.88,62.8,124.3
"2021-10-23 15:26:44+00",10.5,12.5,,,248,368,13,1014.94,62.6,125.8
"2021-10-23 15:31:44+00",11.7,12.7,,,336,379,-4,1014.92,62.5,124.3
"2021-10-23 15:36:44+00",10.3,11.3,,,264,342,7,1015,62.4,148.1
"2021-10-23 15:41:44+00",11.1,12.1,,,265,376,-16,1014.96,62.5,176.1
"2021-10-23 15:46:44+00",11.5,13.5,,,397,317,22,1015.04,62.9,163
"2021-10-23 15:51:44+00",9.4,11.4,,,333,250,23,1015.02,63.1,114.9
"2021-10-23 15:56:44+00",11.4,13.4,,,397,326,3,1014.97,63.1,121.4
"2021-10-23 16:01:44+00",9.9,10.9,,59.8,387,224,19,1014.93,62.9,74.6
"2021-10-23 16:06:44+00",10.5,12.5,,,408,222,16,1014.88,62.7,70.5
"2021-10-23 16:11:44+00",12.8,15.8,,,485,311,24,1014.87,62.4,67.4
"2021-10-23 16:16:44+00",10.1,11.1,,,406,220,37,1014.97,62.1,84.5
"2021-10-23 16:21:44+00",11.7,12.7,,59.2,420,317,16,1014.9,61.9,97.5
"2021-10-23 16:26:44+00",12.8,14.8,,,469,337,15,1014.82,61.8,69.5
"2021-10-23 16:31:44+00",11.9,12.9,,,475,259,16,1014.84,61.4,37.5
"2021-10-23 16:36:44+00",11.0,13.0,,,448,243,26,1014.94,61.1,9.2
"2021-10-23 16:41:44+00",10.5,11.5,,58.7,380,281,21,1014.83,60.7,8.6
"2021-10-23 16:46:44+00",11.0,13.0,,58.5,334,332,15,1014.75,60.3,4
"2021-10-23 16:51:44+00",8.9,10.9,,,317,235,26,1014.79,60.1,0.3
"2021-10-23 16:56:44+00",9.7,10.7,,,303,286,20,1014.76,59.8,0
"2021-10-23 17:01:44+00",8.4,9.4,,,321,201,32,1014.63,59.8,3.9
"2021-10-23 17:06:44+00",6.8,8.8,,,247,163,38,1014.61,59.8,6.2
"2021-10-23 17:11:44+00",8.1,9.1,,58.8,344,132,17,1014.51,60,17.2
"2021-10-23 17:16:44+00",6.3,7.3,,58.9,264,80,29,1014.42,60.2,9.6
"2021-10-23 17:21:44+00",5.5,6.5,,,231,61,20,1014.36,60.3,21.8
"2021-10-23 17:26:44+00",7.6,8.6,,,311,142,15,1014.2,60.7,71.9
"2021-10-23 17:31:44+00",7.0,8.0,,59.3,304,77,28,1014.12,61.1,71.3
"2021-10-23 17:36:44+00",5.7,6.7,,,232,77,25,1014.08,61.4,57.3
"2021-10-23 17:41:44+00",8.1,9.1,,,357,12,3,1013.96,61.7,128.6
"2021-10-23 17:46:44+00",6.8,7.8,,,268,119,38,1013.86,62.1,60.9
"2021-10-23 17:51:44+00",7.7,8.7,,,340,58,6,1013.88,62.2,28.1
"2021-10-23 17:56:44+00",5.6,6.6,,,244,-23,6,1013.91,61.9,137.8
"2021-10-23 18:01:44+00",6.4,8.4,,,270,99,5,1013.85,62.3,131.5
"2021-10-23 18:06:44+00",4.6,6.6,,,176,89,19,1013.75,62.8,86.6
"2021-10-23 18:11:44+00",7.7,9.7,,,340,37,52,1013.53,62.5,93.4
"2021-10-23 18:16:44+00",7.7,8.7,,59.7,337,-44,29,1013.52,62.2,117.2
"2021-10-23 18:21:44+00",7.4,8.4,,,295,-147,1,1013.58,61.9,60.8
"2021-10-23 18:26:44+00",8.7,9.7,,,389,-52,12,1013.34,61.6,60.4
"2021-10-23 18:31:44+00",8.3,9.3,,,362,-68,24,1013.06,61.8,265.5
"2021-10-23 18:36:44+00",8.2,10.2,,,367,-13,24,1013.07,63,221.5
"2021-10-23 18:41:44+00",8.4,9.4,,60,359,-88,-7,1013.14,63.2,266.3
"2021-10-23 18:46:44+00",6.9,7.9,,,287,-92,6,1013.2,63,38.4
"2021-10-23 18:51:44+00",8.7,9.7,,,385,-49,8,1013.36,62.5,43.8
"2021-10-23 18:56:44+00",6.3,7.3,,,259,-99,19,1013.47,62.2,70
"2021-10-23 19:01:44+00",5.7,6.7,,,233,-74,-6,1013.49,62.1,167.8
"2021-10-23 19:06:44+00",5.6,6.6,,,233,20,0,1013.46,62.7,274.4
"2021-10-23 19:11:44+00",6.6,7.6,,60.4,215,-185,-15,1013.45,63.6,278.4
"2021-10-23 19:16:44+00",7.0,8.0,,,307,15,12,1013.45,63.8,267.2
"2021-10-23 19:21:44+00",6.2,8.2,,,212,-155,-12,1013.35,63.9,241.5
"2021-10-23 19:26:44+00",8.2,10.2,,,333,-164,12,1013.39,63.7,226.8
"2021-10-23 19:31:44+00",6.5,7.5,,,252,-121,19,1013.45,63.2,80.9
"2021-10-23 19:36:44+00",7.8,8.8,,,320,-152,24,1013.6,63.4,180.1
"2021-10-23 19:41:44+00",6.9,8.9,,60.5,156,-244,-43,1013.59,62.7,46.3
"2021-10-23 19:46:44+00",7.1,8.1,,,90,-283,-15,1013.76,62.1,16.3
"2021-10-23 19:51:44+00",6.3,7.3,,,177,-203,6,1013.86,61.4,6.3
"2021-10-23 19:56:44+00",7.7,8.7,,,188,-274,-4,1013.75,61,0.7
"2021-10-23 20:01:44+00",6.2,7.2,,,169,-212,21,1013.88,60.8,0
"2021-10-23 20:06:44+00",7.1,7.1,,,166,-253,-2,1013.9,60.6,0
"2021-10-23 20:11:44+00",5.9,7.9,,,44,-226,5,1013.87,60.5,0
"2021-10-23 20:16:44+00",7.4,8.4,,60.3,56,-320,-15,1013.94,60.5,0.8
"2021-10-23 20:21:44+00",5.5,7.5,,,-37,-231,3,1014.04,60.5,1.2
"2021-10-23 20:26:44+00",4.6,5.6,,,9,-185,-9,1014.02,60.4,26.1
"2021-10-23 20:31:44+00",6.3,7.3,,60.2,16,-270,-25,1014.01,60.5,9.1
"2021-10-23 20:36:44+00",2.2,4.2,,,-19,-88,19,1014.02,60.4,1.8
"2021-10-23 20:41:44+00",4.4,5.4,,,18,-175,-8,1014.02,60.5,0
"2021-10-23 20:46:44+00",4.9,5.9,,,107,-173,4,1013.87,60.6,68.1
"2021-10-23 20:51:44+00",6.2,7.2,,,114,-227,-2,1013.76,61.2,94.5
"2021-10-23 20:56:44+00",6.5,7.5,,,165,-216,-13,1013.8,61.6,70.3
"2021-10-23 21:01:44+00",4.4,5.4,,,137,-127,23,1013.81,61.9,52.1
"2021-10-23 21:06:44+00",2.3,3.3,,,56,-56,-6,1013.88,61.8,37.1
"2021-10-23 21:11:44+00",3.6,4.6,,,51,-130,7,1013.94,61.8,3.7
"2021-10-23 21:16:44+00",4.5,5.5,,61.1,33,-188,-14,1013.96,61.4,0.4
"2021-10-23 21:21:44+00",6.7,6.7,,,39,-276,-11,1013.97,61.1,0.2
"2021-10-23 21:26:44+00",5.0,6.0,,,107,-180,-2,1014.08,60.9,0
"2021-10-23 21:31:44+00",4.8,5.8,,,144,-140,-1,1014.11,60.8,0
"2021-10-23 21:36:44+00",4.9,5.9,,60.9,149,-141,2,1014,60.7,0
"2021-10-23 21:41:44+00",3.3,4.3,,,107,-87,0,1014.06,60.6,0
"2021-10-23 21:46:44+00",3.8,4.8,,,8,-157,-13,1014.2,60.4,0
"2021-10-23 21:51:44+00",4.7,4.7,,60.9,21,-196,-5,1014.09,60.3,0
"2021-10-23 21:56:44+00",4.6,5.6,,,13,-185,-4,1013.97,60.1,0
"2021-10-23 22:01:44+00",4.8,4.8,,,26,-195,-5,1013.94,59.9,0
"2021-10-23 22:06:44+00",4.3,5.3,,,8,-176,-7,1013.85,59.8,0
"2021-10-23 22:11:44+00",4.1,5.1,,,16,-161,-2,1013.92,59.8,0
"2021-10-23 22:16:44+00",3.8,3.8,,,44,-149,-6,1013.89,59.7,0
"2021-10-23 22:21:44+00",4.3,4.3,,,65,-167,-9,1013.92,59.4,0
"2021-10-23 22:26:44+00",4.4,4.4,,,14,-178,-5,1014.05,59.3,0
"2021-10-23 22:31:44+00",3.2,4.2,,,21,-130,-4,1014.13,59.2,0
"2021-10-23 22:36:44+00",4.1,4.1,,,-34,-164,-6,1014.26,59.2,0
"2021-10-23 22:41:44+00",4.3,5.3,,,-1,-171,-3,1014.19,59.4,0
"2021-10-23 22:46:44+00",4.7,4.7,,,6,-187,-4,1014.12,59.5,0
"2021-10-23 22:51:44+00",4.6,5.6,,,3,-188,-4,1014.24,59.6,0
"2021-10-23 22:56:44+00",4.6,5.6,,,-12,-189,-5,1014.26,59.8,0
"2021-10-23 23:01:44+00",5.9,6.9,,,-57,-237,-5,1014.27,59.8,0
"2021-10-23 23:06:44+00",5.0,6.0,,,-188,-99,8,1014.37,59.7,0
"2021-10-23 23:11:44+00",10.8,13.8,,,-379,309,29,1014.59,59.5,0
"2021-10-23 23:16:44+00",8.2,10.2,,,-264,256,25,1014.65,59.4,0
"2021-10-23 23:21:44+00",6.7,7.7,,,-236,171,12,1014.64,59.5,0
"2021-10-23 23:26:44+00",7.8,8.8,,,-193,278,22,1014.74,59.3,0
"2021-10-23 23:31:44+00",7.7,8.7,,,-238,233,21,1014.83,59.3,0
"2021-10-23 23:36:44+00",9.6,10.6,,,-405,170,29,1014.96,59.3,0
"2021-10-23 23:41:44+00",15.0,17.0,,,-638,282,29,1014.94,59.4,0
"2021-10-23 23:46:44+00",11.6,12.6,,59.5,-469,259,31,1014.92,59.2,0
"2021-10-23 23:51:44+00",14.6,16.6,,,-578,346,22,1014.95,59.2,0
"2021-10-23 23:56:44+00",14.5,15.5,,,-560,349,41,1014.81,58.8,0
